{"data":{"norad_id":69173,"intl_designator":"2026-111AB","name":"STARLINK-37461","alt_names":[],"object_type":"PAYLOAD","status":"ACTIVE","operator":null,"country":"US","launch_date":"2026-05-21","launch_site_code":"AFETR","launch_vehicle":null,"mission":null,"orbit_class":"UNKNOWN","rcs_meters":null,"size_class":null,"mass_kg":null,"dimensions":null,"purposes":["comms"],"wikipedia_slug":null,"has_3d_model":false,"image_url":null,"decayed_at":null,"tle_current":{"epoch":"2026-09-20T01:25:02.508384Z","epoch_age_seconds":65108,"freshness":"FRESH","line1":"1 69173U 26111AB  26263.05905681  .00016452  00000+0  49702-3 0  9992","line2":"2 69173  53.1590  67.6195 0001493 123.2683 236.8463 15.34398139 18835","mean_motion":15.34398139,"eccentricity":0.0001493,"inclination_deg":53.159,"raan_deg":67.6195,"arg_perigee_deg":123.2683,"mean_anomaly_deg":236.8463,"bstar":0.00049702,"rev_number":1883,"period_min":93.847871904907,"perigee_km":461.6874332232,"apogee_km":463.73010977057,"semimajor_km":6840.8457714969,"source":"CELESTRAK","updated_at":"2026-09-20T09:00:44.094579Z"}}}